Grayling, MI

2:50 AM EDT on May 29, 2017 (GMT -0400)
Grayling

Weather History for KGOV - June, 2013

Change the Weather History Date:

Thursday, June 27, 2013

  Actual Average (KHTL) Record (KHTL)
Temperature  
Mean Temperature 71 °F -  
Max Temperature 79 °F 77 °F 100 °F (1933)
Min Temperature 63 °F 53 °F 33 °F (1926)
Cooling Degree Days 6    
Growing Degree Days 21 (Base 50)    
Moisture  
Dew Point 66 °F    
Average Humidity 85    
Maximum Humidity 100    
Minimum Humidity 53    
Precipitation  
Precipitation 0.00 in - - ()
Sea Level Pressure  
Sea Level Pressure 29.76 in    
Wind  
Wind Speed 2 mph (East)    
Max Wind Speed 13 mph    
Max Gust Speed 16 mph    
Visibility 9 miles    
Events Rain    
Averages and records for this station are not official NWS values.
T = Trace of Precipitation, MM = Missing Value Source: NWS Daily Summary

Daily Weather History Graph

Daily Weather History Graph

Search for Another Location

Airport or City:

Trip Planner

Search our weather history database for the weather conditions in past years. The results will help you decide how hot, cold, wet, or windy it might be!

Date:

Astronomy

Jun. 27, 2013 Rise Set
Actual Time 5:55 AM EDT 9:28 PM EDT
Civil Twilight 5:18 AM EDT 10:05 PM EDT
Nautical Twilight 4:29 AM EDT 10:54 PM EDT
Astronomical Twilight 3:25 AM EDT 11:57 PM EDT
Moon No Moon Rise 11:08 AM EDT (6/27)
Length of Visible Light 16h 46m
Length of Day
15h 33m
Waning Gibbous, 76% of the Moon is Illuminated
Jun 27
Waning Gibbous
Jun 30
Last Quarter
Jul 8
New
Jul 15
First Quarter
Jul 22
Full

Hourly Weather History & Observations

Time (EDT) Temp. Dew Point Humidity Pressure Visibility Wind Dir Wind Speed Gust Speed Precip Events Conditions
12:15 AM 68.5 °F 64.6 °F 87% 29.81 in 10.0 mi Calm Calm - N/A   Scattered Clouds
12:35 AM 68.5 °F 66.0 °F 92% 29.82 in 10.0 mi Calm Calm - N/A   Clear
12:54 AM 68.5 °F 66.2 °F 92% 29.81 in 10.0 mi Calm Calm - N/A   Clear
1:15 AM 68.5 °F 67.1 °F 95% 29.80 in 10.0 mi Calm Calm - N/A   Clear
1:35 AM 67.3 °F 66.2 °F 96% 29.80 in 10.0 mi Calm Calm - N/A   Scattered Clouds
1:54 AM 66.6 °F 65.1 °F 95% 29.80 in 10.0 mi Calm Calm - N/A   Scattered Clouds
2:15 AM 64.6 °F 64.6 °F 100% 29.80 in 10.0 mi Calm Calm - N/A   Clear
2:35 AM 63.5 °F 63.5 °F 100% 29.81 in 7.0 mi Calm Calm - N/A   Scattered Clouds
2:54 AM 66.2 °F 65.7 °F 98% 29.80 in 10.0 mi Calm Calm - N/A   Scattered Clouds
3:15 AM 64.8 °F 64.6 °F 99% 29.79 in 10.0 mi Calm Calm - N/A   Clear
3:35 AM 63.7 °F 63.7 °F 100% 29.79 in 10.0 mi Calm Calm - N/A   Clear
3:54 AM 63.5 °F 63.1 °F 99% 29.79 in 10.0 mi Calm Calm - N/A   Clear
4:15 AM 63.1 °F 63.1 °F 100% 29.79 in 10.0 mi Calm Calm - N/A   Clear
4:34 AM 63.5 °F 63.5 °F 100% 29.79 in 10.0 mi Calm Calm - N/A   Clear
4:54 AM 63.5 °F 63.5 °F 100% 29.79 in 10.0 mi Calm Calm - N/A   Clear
5:15 AM 64.6 °F 64.4 °F 99% 29.79 in 10.0 mi Calm Calm - N/A   Clear
5:35 AM 65.3 °F 64.4 °F 97% 29.79 in 10.0 mi Calm Calm - N/A   Clear
5:55 AM 66.2 °F 65.1 °F 96% 29.79 in 10.0 mi Calm Calm - N/A   Clear
6:15 AM 63.5 °F 63.5 °F 100% 29.79 in 10.0 mi Calm Calm - N/A   Clear
6:35 AM 66.2 °F 65.5 °F 98% 29.79 in 10.0 mi Calm Calm - N/A   Clear
6:54 AM 63.5 °F 63.0 °F 98% 29.78 in 10.0 mi Calm Calm - N/A   Clear
7:14 AM 66.2 °F 65.5 °F 98% 29.78 in 10.0 mi Calm Calm - N/A   Clear
7:35 AM 68.5 °F 66.7 °F 94% 29.78 in 10.0 mi Calm Calm - N/A   Clear
7:54 AM 68.5 °F 64.6 °F 87% 29.77 in 10.0 mi Calm Calm - N/A   Clear
8:14 AM 73.6 °F 66.0 °F 77% 29.77 in 10.0 mi Calm Calm - N/A   Clear
8:35 AM 73.6 °F 65.5 °F 76% 29.77 in 10.0 mi ESE 3.5 mph - N/A   Clear
8:54 AM 74.7 °F 65.1 °F 72% 29.77 in 10.0 mi Calm Calm - N/A   Clear
9:15 AM 73.6 °F 64.8 °F 74% 29.77 in 10.0 mi SSE 3.5 mph - N/A   Clear
9:35 AM 73.9 °F 65.1 °F 74% 29.78 in 10.0 mi Calm Calm - N/A   Scattered Clouds
9:54 AM 76.1 °F 66.7 °F 73% 29.77 in 10.0 mi Calm Calm - N/A   Scattered Clouds
10:15 AM 76.1 °F 66.4 °F 72% 29.77 in 10.0 mi NNW 4.6 mph - N/A   Mostly Cloudy
10:35 AM 76.1 °F 65.8 °F 70% 29.78 in 10.0 mi NNW 4.6 mph - N/A   Overcast
10:54 AM 76.1 °F 64.8 °F 68% 29.78 in 10.0 mi West 8.1 mph - N/A   Mostly Cloudy
11:15 AM 76.1 °F 64.8 °F 68% 29.77 in 10.0 mi NNW 9.2 mph - N/A   Mostly Cloudy
11:35 AM 70.9 °F 68.9 °F 93% 29.78 in 4.0 mi NNW 5.8 mph - N/A Rain Heavy Rain
11:55 AM 69.3 °F 68.4 °F 97% 29.78 in 2.5 mi North 3.5 mph - N/A Rain Light Rain
12:15 PM 72.9 °F 70.0 °F 91% 29.76 in 10.0 mi NNW 3.5 mph - N/A   Mostly Cloudy
12:34 PM 73.6 °F 69.8 °F 88% 29.75 in 10.0 mi WNW 5.8 mph - N/A   Scattered Clouds
12:55 PM 76.1 °F 69.4 °F 80% 29.75 in 10.0 mi WNW 5.8 mph - N/A   Clear
1:15 PM 76.3 °F 66.2 °F 71% 29.75 in 10.0 mi NW 6.9 mph - N/A   Clear
1:34 PM 78.8 °F 65.5 °F 64% 29.75 in 10.0 mi NW 5.8 mph - N/A   Scattered Clouds
1:55 PM 79.0 °F 64.0 °F 60% 29.74 in 10.0 mi West 6.9 mph - N/A   Overcast
2:15 PM 78.8 °F 60.3 °F 53% 29.74 in 10.0 mi Calm Calm - N/A   Overcast
2:34 PM 79.9 °F 61.3 °F 53% 29.74 in 10.0 mi Calm Calm - N/A   Overcast
2:55 PM 77.2 °F 65.7 °F 67% 29.74 in 10.0 mi ESE 11.5 mph - N/A   Overcast
3:15 PM 78.8 °F 65.1 °F 63% 29.74 in 10.0 mi East 11.5 mph 16.1 mph N/A   Mostly Cloudy
3:34 PM 78.1 °F 64.6 °F 63% 29.74 in 10.0 mi East 12.7 mph - N/A   Mostly Cloudy
3:55 PM 76.1 °F 65.1 °F 69% 29.74 in 10.0 mi East 9.2 mph - N/A   Overcast
4:15 PM 74.1 °F 64.9 °F 73% 29.74 in 10.0 mi East 8.1 mph - N/A Rain Light Rain
4:34 PM 76.1 °F 65.1 °F 69% 29.72 in 10.0 mi ESE 9.2 mph - N/A   Mostly Cloudy
4:55 PM 78.8 °F 65.8 °F 64% 29.71 in 10.0 mi East 9.2 mph - N/A   Clear
5:15 PM 78.8 °F 64.8 °F 62% 29.72 in 10.0 mi ENE 10.4 mph - N/A   Scattered Clouds
5:34 PM 78.8 °F 63.5 °F 59% 29.71 in 10.0 mi East 5.8 mph - N/A   Clear
5:55 PM 78.6 °F 62.6 °F 58% 29.70 in 10.0 mi ENE 9.2 mph - N/A   Scattered Clouds
6:14 PM 78.8 °F 63.0 °F 58% 29.70 in 10.0 mi East 6.9 mph - N/A   Mostly Cloudy
6:34 PM 77.2 °F 62.2 °F 60% 29.70 in 10.0 mi East 6.9 mph - N/A   Mostly Cloudy
6:55 PM 76.1 °F 63.0 °F 64% 29.70 in 10.0 mi South 9.2 mph - N/A   Overcast
7:14 PM 68.7 °F 67.5 °F 96% 29.73 in 1.5 mi SSE 11.5 mph - N/A Rain Heavy Rain
7:34 PM 68.5 °F 68.2 °F 99% 29.73 in 7.0 mi SSW 8.1 mph - N/A Rain Light Rain
7:55 PM 68.5 °F 68.2 °F 99% 29.74 in 10.0 mi East 11.5 mph 16.1 mph N/A   Overcast
8:14 PM 68.5 °F 68.0 °F 98% 29.74 in 7.0 mi East 6.9 mph - N/A Rain Light Rain
8:35 PM 68.5 °F 68.5 °F 100% 29.76 in 3.0 mi North 4.6 mph - N/A Rain Light Rain
8:55 PM 67.5 °F 67.5 °F 100% 29.75 in 5.0 mi SSE 3.5 mph - N/A Rain Light Rain
9:14 PM 68.5 °F 68.5 °F 100% 29.75 in 4.0 mi Calm Calm - N/A Rain Rain
9:35 PM 68.5 °F 68.5 °F 100% 29.74 in 7.0 mi Calm Calm - N/A Rain Light Rain
9:55 PM 68.5 °F 68.5 °F 100% 29.73 in 7.0 mi SSW 8.1 mph - N/A   Mostly Cloudy
10:14 PM 68.5 °F 68.5 °F 100% 29.73 in 7.0 mi WSW 3.5 mph - N/A   Overcast
10:35 PM 68.5 °F 68.5 °F 100% 29.70 in 7.0 mi SE 8.1 mph - N/A   Mostly Cloudy
10:55 PM 66.2 °F 66.2 °F 100% 29.70 in 5.0 mi SSW 3.5 mph - N/A   Scattered Clouds
11:14 PM 66.2 °F 66.2 °F 100% 29.69 in 7.0 mi WSW 5.8 mph - N/A   Scattered Clouds
11:35 PM 66.2 °F 66.2 °F 100% 29.69 in 10.0 mi WSW 5.8 mph - N/A   Clear
11:55 PM 64.6 °F 64.6 °F 100% 29.69 in 10.0 mi West 6.9 mph - N/A   Clear